Prestwick, United Kingdom

4:58 PM BST on June 27, 2017 (GMT +0100)
Prestwick

Weather History for EGPK - March, 2014

Change the Weather History Date:

Saturday, March 29, 2014

  Actual Average Record
Temperature  
Mean Temperature 49 °F -  
Max Temperature 57 °F 52 °F 57 °F (2014)
Min Temperature 41 °F 39 °F 24 °F (2013)
Degree Days  
Heating Degree Days 16    
Moisture  
Dew Point 41 °F    
Average Humidity 77    
Maximum Humidity 87    
Minimum Humidity 58    
Precipitation  
Precipitation 0.00 in - - ()
Sea Level Pressure  
Sea Level Pressure 30.02 in    
Wind  
Wind Speed 5 mph ()    
Max Wind Speed 14 mph    
Max Gust Speed 28 mph    
Visibility 6.2 miles    
Events Rain    
Averages and records for this station are not official NWS values.
T = Trace of Precipitation, MM = Missing Value Source: Averaged Metar Reports

Daily Weather History Graph

Daily Weather History Graph

Search for Another Location

Airport or City:

Trip Planner

Search our weather history database for the weather conditions in past years. The results will help you decide how hot, cold, wet, or windy it might be!

Date:

Astronomy

Mar. 29, 2014 Rise Set
Actual Time 5:57 AM GMT 6:49 PM GMT
Civil Twilight 5:20 AM GMT 7:27 PM GMT
Nautical Twilight 4:35 AM GMT 8:12 PM GMT
Astronomical Twilight 3:46 AM GMT 9:01 PM GMT
Moon 5:11 AM GMT (3/29) 5:29 PM GMT (3/29)
Length of Visible Light 14h 06m
Length of Day
12h 52m
Waning Crescent, 2% of the Moon is Illuminated
Mar 29
Waning Crescent
Mar 30
New
Apr 7
First Quarter
Apr 15
Full
Apr 22
Last Quarter

Hourly Weather History & Observations

Time (GMT) Temp. Windchill Dew Point Humidity Pressure Visibility Wind Dir Wind Speed Gust Speed Precip Events Conditions
12:50 AM 41.0 °F 39.0 °F 37.4 °F 87% 30.12 in 5.6 mi ENE 3.5 mph - N/A Rain Light Rain Showers
1:50 AM 41.0 °F 37.1 °F 37.4 °F 87% 30.09 in 5.6 mi ENE 5.8 mph - N/A   Mostly Cloudy
2:50 AM 41.0 °F - 37.4 °F 87% 30.09 in 5.6 mi East 2.3 mph - N/A   Scattered Clouds
3:50 AM 41.0 °F 39.0 °F 37.4 °F 87% 30.06 in 6.2 mi East 3.5 mph 15.0 mph N/A   Partly Cloudy
4:50 AM 42.8 °F - 39.2 °F 87% 30.06 in 6.2 mi ENE 2.3 mph - N/A   Mostly Cloudy
5:50 AM 42.8 °F - 39.2 °F 87% 30.06 in 6.2 mi ENE 2.3 mph - N/A   Mostly Cloudy
6:20 AM 42.8 °F 41.1 °F 39.2 °F 87% 30.06 in 6.2 mi ENE 3.5 mph - N/A   Scattered Clouds
6:50 AM 42.8 °F 41.1 °F 39.2 °F 87% 30.04 in 6.2 mi East 3.5 mph - N/A   Partly Cloudy
7:20 AM 42.8 °F 41.1 °F 39.2 °F 87% 30.04 in 6.2 mi Variable 3.5 mph - N/A   Scattered Clouds
7:50 AM 44.6 °F 43.1 °F 39.2 °F 81% 30.04 in 6.2 mi Variable 3.5 mph - N/A   Scattered Clouds
8:20 AM 44.6 °F 40.7 °F 41.0 °F 87% 30.06 in 6.2 mi East 6.9 mph - N/A   Scattered Clouds
8:50 AM 44.6 °F 42.2 °F 41.0 °F 87% 30.06 in 6.2 mi East 4.6 mph 16.1 mph N/A   Scattered Clouds
9:20 AM 46.4 °F 43.5 °F 41.0 °F 81% 30.04 in 6.2 mi East 5.8 mph - N/A   Scattered Clouds
9:50 AM 48.2 °F - 41.0 °F 76% 30.04 in 6.2 mi East 13.8 mph 26.5 mph N/A   Scattered Clouds
10:20 AM 50.0 °F - 42.8 °F 76% 30.04 in 6.2 mi East 13.8 mph - N/A   Scattered Clouds
10:50 AM 50.0 °F - 41.0 °F 71% 30.04 in 6.2 mi East 10.4 mph - N/A   Scattered Clouds
11:20 AM 50.0 °F - 42.8 °F 76% 30.04 in 6.2 mi East 5.8 mph - N/A   Scattered Clouds
11:50 AM 50.0 °F - 42.8 °F 76% 30.04 in 6.2 mi East 6.9 mph - N/A   Scattered Clouds
12:20 PM 51.8 °F - 42.8 °F 71% 30.04 in 6.2 mi East 9.2 mph 21.9 mph N/A   Scattered Clouds
12:50 PM 51.8 °F - 42.8 °F 71% 30.04 in 6.2 mi East 6.9 mph - N/A   Scattered Clouds
1:20 PM 51.8 °F - 42.8 °F 71% 30.01 in 6.2 mi East 10.4 mph 27.6 mph N/A   Scattered Clouds
1:50 PM 53.6 °F - 42.8 °F 67% 30.01 in 6.2 mi East 6.9 mph 18.4 mph N/A   Scattered Clouds
2:20 PM 55.4 °F - 44.6 °F 67% 29.98 in 6.2 mi East 10.4 mph 21.9 mph N/A   Scattered Clouds
2:50 PM 55.4 °F - 42.8 °F 63% 29.98 in 6.2 mi East 6.9 mph 20.7 mph N/A   Scattered Clouds
3:20 PM 57.2 °F - 44.6 °F 63% 29.98 in 6.2 mi East 5.8 mph - N/A   Partly Cloudy
3:50 PM 55.4 °F - 42.8 °F 63% 29.98 in 6.2 mi East 4.6 mph - N/A   Partly Cloudy
4:20 PM 55.4 °F - 41.0 °F 58% 29.95 in 6.2 mi East 5.8 mph - N/A   Partly Cloudy
4:50 PM 53.6 °F - 42.8 °F 67% 29.98 in 6.2 mi ENE 9.2 mph - N/A   Partly Cloudy
5:20 PM 51.8 °F - 42.8 °F 71% 29.98 in 6.2 mi ENE 4.6 mph - N/A   Partly Cloudy
5:50 PM 51.8 °F - 42.8 °F 71% 29.98 in 6.2 mi ENE 3.5 mph 15.0 mph N/A   Partly Cloudy
6:20 PM 50.0 °F - 41.0 °F 71% 29.98 in 6.2 mi ENE 4.6 mph - N/A   Partly Cloudy
6:50 PM 48.2 °F - 41.0 °F 76% 29.98 in 6.2 mi ENE 11.5 mph 23.0 mph N/A   Partly Cloudy
7:20 PM 48.2 °F - 41.0 °F 76% 29.98 in 6.2 mi ENE 8.1 mph - N/A   Partly Cloudy
7:50 PM 46.4 °F 42.4 °F 41.0 °F 81% 29.98 in 6.2 mi ENE 8.1 mph - N/A   Partly Cloudy
8:20 PM 46.4 °F 42.9 °F 39.2 °F 76% 30.01 in 6.2 mi ENE 6.9 mph - N/A   Partly Cloudy
8:50 PM 46.4 °F 45.2 °F 39.2 °F 76% 30.01 in 6.2 mi East 3.5 mph - N/A   Partly Cloudy
9:20 PM 44.6 °F 43.1 °F 39.2 °F 81% 30.01 in 6.2 mi ENE 3.5 mph - N/A   Partly Cloudy
9:50 PM 44.6 °F - 39.2 °F 81% 29.98 in 6.2 mi Variable 2.3 mph - N/A   Partly Cloudy
10:20 PM 44.6 °F 41.4 °F 37.4 °F 76% 29.98 in 6.2 mi NE 5.8 mph - N/A   Partly Cloudy
10:50 PM 44.6 °F 43.1 °F 37.4 °F 76% 29.98 in 6.2 mi East 3.5 mph - N/A   Partly Cloudy
11:20 PM 44.6 °F 40.7 °F 37.4 °F 76% 29.98 in 6.2 mi East 6.9 mph - N/A   Partly Cloudy
11:50 PM 44.6 °F 42.2 °F 37.4 °F 76% 29.98 in 6.2 mi ESE 4.6 mph - N/A   Partly Cloudy